Torna al catalogo

INMARSAT GX5

AttivoComunicazioniGEO
NORAD 44801·PAYLOAD·🇮🇲 IM

Lanciato Nov 26, 2019 da Guiana Space Centre

Loading…

TLE

AggiornatoSource: Space-Track

Epoca: Sep 14, 2026, 13:51 UTC

1 44801U 19080B   26257.57735435  .00000067  00000-0  00000-0 0  9999
2 44801   0.0554   1.1981 0002133 177.7265  33.4790  1.00271044  7683

Traccia INMARSAT GX5 in tempo reale con AllMySat

Download on the App Store